Theta_e
302 301 301 300 300 300 300 300 301 302 303 303 304 304 304 304 303 302 301 300 299 301 302 302 302 302 302 302 303 306 308 310 310 310 314 316 316 315 312 311 310 307 305 304 304 302 305 314 321 323 323 322 321 322 322 322 323 324 327 328 328 330 330 332 332 332 331 328 324 323 323 322 322 322 321 321 320 321 322 322 322 324 324 324 328 327 328 327
300 300 300 300 300 300 299 299 300 301 301 301 302 302 303 303 302 302 302 301 299 300 301 302 303 303 303 302 302 304 307 309 309 309 312 315 316 315 312 311 310 308 306 304 305 306 305 312 322 323 321 322 321 321 322 323 323 324 326 327 327 328 329 330 331 331 331 330 328 326 325 325 324 323 322 321 321 321 321 322 322 325 326 324 325 325 326 326
300 299 299 300 299 300 300 299 299 300 300 301 301 302 302 302 302 302 302 302 301 299 300 301 303 304 303 302 302 303 306 309 309 311 313 316 316 314 312 311 311 309 309 308 306 307 304 305 313 318 321 323 321 320 322 323 323 323 324 325 325 326 327 328 329 330 331 330 330 328 327 326 326 325 323 322 322 322 321 322 322 324 327 325 324 323 323 325
301 300 299 300 300 300 300 300 300 300 300 300 301 301 302 302 302 302 302 302 302 300 299 300 301 303 303 303 303 302 306 310 313 315 316 317 315 312 312 312 313 312 315 315 309 305 302 303 310 316 321 324 322 320 321 323 322 322 323 323 323 324 325 327 328 329 331 331 330 329 327 326 327 326 324 324 324 324 322 323 323 323 325 325 324 322 321 323
301 301 300 300 300 300 300 301 301 301 300 300 301 301 301 302 302 302 302 302 302 301 300 300 301 303 303 304 303 303 308 311 315 318 316 315 313 312 312 312 313 315 317 317 313 308 305 309 316 319 322 323 323 321 320 322 322 322 322 322 322 322 323 325 328 328 329 330 330 329 328 328 327 326 325 325 325 325 324 324 324 323 323 324 324 323 321 321
301 301 301 300 300 300 300 300 301 301 301 301 301 301 302 302 302 302 302 302 302 301 300 300 301 302 303 304 304 304 310 312 315 318 315 314 313 313 312 311 313 316 319 319 316 315 312 314 319 320 321 321 322 321 320 321 322 322 322 322 322 322 322 323 326 327 328 328 329 329 329 329 327 325 325 325 325 325 324 324 324 324 323 324 324 323 322 321
302 302 302 302 301 300 300 300 301 301 301 302 302 302 302 302 302 302 302 302 302 302 301 300 300 301 303 305 305 306 310 312 311 314 314 315 315 314 313 311 313 315 319 319 318 317 315 316 319 319 319 319 319 318 319 320 321 321 321 321 321 321 322 324 324 325 327 328 328 328 328 328 326 325 326 326 325 325 325 324 324 324 325 325 325 324 322 321
303 303 303 303 303 302 301 300 300 301 301 302 302 302 302 302 302 302 303 302 302 302 302 301 300 301 302 304 306 308 310 310 309 312 314 314 314 314 313 313 314 316 317 317 318 318 316 317 318 319 319 319 319 318 319 320 321 321 320 320 321 322 322 323 324 323 325 326 327 327 327 327 326 326 327 327 325 324 324 324 324 323 326 329 327 325 323 321
303 303 303 304 304 303 302 302 301 301 301 301 302 302 302 302 302 302 302 302 303 303 302 302 301 301 301 304 308 309 309 310 310 312 313 313 313 313 313 313 314 316 315 316 319 319 317 316 317 318 319 320 320 320 320 320 321 321 321 321 322 322 321 321 322 324 324 325 326 326 326 327 327 327 328 328 326 325 324 324 324 322 325 328 328 326 324 321
303 303 304 304 304 303 303 303 303 302 302 302 302 302 302 302 302 302 302 302 302 302 302 303 302 302 302 306 308 308 309 310 311 312 311 312 312 312 313 313 314 315 315 316 318 318 318 318 318 319 320 320 320 321 321 321 321 321 321 321 321 322 321 320 321 323 324 324 325 325 325 326 326 327 328 328 327 327 327 325 324 323 323 324 326 326 325 323
303 303 304 303 303 303 304 304 304 303 303 303 302 302 302 302 302 302 302 302 302 302 302 302 302 303 303 306 308 308 309 310 311 312 312 311 311 312 313 312 313 314 315 315 316 318 319 320 320 320 320 319 319 320 320 320 320 321 321 320 321 321 321 321 321 322 323 323 324 323 324 325 326 327 327 328 328 327 328 326 324 323 323 323 324 325 326 325
302 303 303 303 303 303 303 303 303 303 303 304 304 303 302 302 302 302 302 302 302 302 302 302 302 302 304 306 307 308 309 309 309 310 311 311 311 312 312 312 312 313 314 315 315 316 317 319 320 320 319 317 318 318 319 320 319 320 320 320 320 320 321 321 321 323 323 322 322 322 324 324 325 326 327 327 328 327 327 326 324 323 324 324 323 324 325 326
302 302 303 303 303 303 302 302 302 303 303 303 304 304 303 302 301 301 302 302 302 302 302 302 302 302 304 306 306 306 308 308 307 309 309 310 311 311 312 312 312 312 313 314 314 315 316 318 319 321 320 318 318 318 319 320 320 320 319 319 320 320 320 320 320 321 321 321 321 322 323 322 323 325 326 327 327 327 327 326 325 324 323 324 324 324 325 325
302 302 302 302 302 302 301 301 301 301 301 302 303 303 303 303 302 301 301 301 301 302 302 302 302 302 305 306 305 306 307 306 305 307 307 308 310 310 311 312 312 312 313 313 315 316 316 317 319 321 321 319 319 319 320 320 320 320 320 319 320 320 320 319 320 320 319 320 320 322 322 320 321 323 324 326 326 327 327 328 327 326 324 324 325 324 324 326
301 301 302 302 302 302 301 301 300 300 300 300 301 302 303 303 303 302 301 301 300 301 301 301 302 304 305 305 305 305 306 305 305 306 306 306 307 309 310 312 312 312 313 313 315 316 316 316 318 320 320 320 319 318 319 319 319 320 321 322 321 321 319 318 320 320 319 320 320 321 321 320 321 322 323 324 326 326 327 327 328 327 327 325 325 324 324 326
300 301 301 301 302 302 302 301 300 299 299 299 300 301 302 303 303 303 302 301 301 301 301 303 305 305 305 305 306 306 306 306 306 307 308 307 307 307 309 310 311 312 312 312 314 315 315 316 318 320 320 320 318 318 318 319 319 320 321 321 320 321 320 318 319 320 320 321 320 321 321 321 321 321 321 322 323 325 326 327 327 328 328 327 325 324 325 326
299 299 300 301 301 302 302 301 300 299 299 299 299 301 303 303 303 303 303 302 302 302 302 304 305 305 305 305 305 306 308 308 308 308 309 309 309 308 308 308 310 311 312 311 312 314 315 316 317 318 319 320 319 318 319 318 318 319 321 320 319 319 319 320 321 321 321 320 320 320 321 321 320 320 320 320 321 323 325 326 327 328 329 328 327 325 325 326
298 298 299 300 301 301 301 301 300 299 299 299 300 302 303 303 304 304 303 304 304 303 304 305 304 304 305 305 305 306 308 307 308 308 308 308 309 309 309 310 310 310 311 312 312 314 315 315 315 316 318 319 319 319 319 318 316 317 320 321 320 319 318 319 320 320 321 321 320 320 321 321 321 320 319 319 320 321 323 325 326 327 328 329 328 326 325 326
298 298 298 298 299 300 301 301 300 299 299 299 300 302 303 304 305 305 305 305 305 304 305 306 305 304 306 305 305 307 307 305 305 307 307 308 309 310 310 311 311 311 312 312 313 314 315 314 314 315 316 317 319 319 318 318 315 315 317 319 320 320 319 318 318 319 322 322 321 320 321 322 322 322 321 320 320 320 321 323 326 327 328 328 328 327 326 326
299 298 298 298 299 299 300 301 300 300 300 300 300 301 303 305 305 305 306 305 305 305 304 304 305 305 305 305 306 307 307 305 306 308 308 308 309 310 310 311 311 311 312 312 313 314 315 314 314 313 314 315 316 318 318 317 316 316 316 318 319 320 320 319 319 320 321 322 322 322 322 321 321 321 321 320 320 318 319 322 326 327 327 328 328 329 328 327
300 300 299 299 299 299 300 300 300 301 301 301 301 303 305 304 304 305 305 305 305 305 305 305 305 304 304 304 305 305 306 306 306 307 308 307 308 309 310 310 311 310 311 311 312 314 315 314 313 313 312 312 313 315 317 317 317 317 317 318 318 318 319 318 319 320 321 322 322 322 322 321 320 320 320 320 320 319 318 322 326 326 326 326 326 327 328 328
301 301 301 300 300 299 300 300 300 300 301 301 302 304 305 304 304 305 304 304 304 304 304 305 305 305 304 304 303 304 305 306 305 304 305 307 307 308 309 310 310 309 310 311 311 313 315 314 313 312 312 312 312 312 314 316 318 318 318 318 318 318 318 317 317 318 319 321 322 322 321 320 320 320 319 319 319 320 319 321 324 324 324 324 324 324 325 327
301 302 301 301 301 300 300 300 300 300 301 302 303 305 304 303 304 304 304 304 304 304 304 304 305 306 306 305 304 304 305 305 304 303 304 306 308 308 308 309 310 309 310 311 311 311 313 314 313 313 312 311 312 313 313 314 316 318 318 318 318 318 318 318 317 316 316 319 321 321 321 320 319 319 319 319 319 319 320 320 321 322 322 322 322 322 323 324
301 301 301 301 301 301 301 301 300 300 301 303 304 304 303 303 304 304 305 304 304 304 304 305 305 305 306 306 305 305 306 305 304 303 304 306 307 308 308 308 310 310 310 310 311 311 311 312 312 313 313 312 313 313 313 313 314 317 318 318 318 318 317 317 316 316 316 317 319 319 320 319 319 319 318 318 319 318 319 320 320 320 320 321 321 321 322 323
301 301 301 301 301 301 301 301 301 301 302 303 304 303 303 303 304 304 304 304 304 305 305 305 305 305 305 305 305 305 306 306 305 304 304 306 307 307 308 308 309 310 310 310 311 311 311 311 311 312 312 313 313 312 314 315 314 316 317 318 318 318 318 317 317 317 317 318 318 318 320 320 319 319 318 318 319 318 319 319 320 320 320 321 321 320 321 322
299 300 301 301 301 301 301 301 302 302 303 303 303 303 302 303 304 303 304 304 304 305 305 305 305 304 304 305 306 305 305 305 305 304 304 306 307 307 307 307 308 309 309 310 311 311 311 311 311 312 312 314 314 312 313 314 315 315 316 317 318 317 318 319 319 320 319 319 318 317 319 319 319 318 318 318 318 318 319 319 320 320 320 321 321 321 320 322
298 298 299 300 301 301 301 302 302 302 303 302 302 302 302 302 302 303 304 303 303 305 305 305 305 303 303 305 306 305 305 306 305 305 305 305 306 306 306 307 309 309 309 310 311 311 311 312 312 312 312 313 313 313 313 313 314 314 315 317 319 318 319 320 320 320 320 319 319 318 319 319 319 318 318 319 319 318 318 320 320 320 320 321 321 321 320 321
298 297 298 299 300 300 301 302 301 302 302 302 302 302 301 302 302 302 303 301 300 302 305 305 305 304 304 306 305 305 307 306 305 306 305 305 306 306 306 307 308 308 309 309 310 311 311 312 312 313 313 312 312 312 313 314 313 314 315 318 318 318 319 320 320 321 320 321 321 320 319 320 318 317 317 318 318 318 318 319 319 319 319 320 321 322 321 320
298 298 297 298 300 300 300 301 301 302 302 302 302 302 301 302 301 302 302 300 300 301 304 305 305 305 306 306 306 306 306 305 306 306 305 306 307 306 306 307 307 308 308 309 309 310 310 311 311 312 312 313 312 311 313 313 313 315 317 318 318 318 319 319 321 321 320 321 321 320 319 320 319 317 317 318 317 317 317 317 318 318 319 321 321 322 322 321
299 299 298 298 299 301 301 302 302 302 302 301 302 302 301 301 302 301 300 299 300 303 304 305 305 306 306 306 306 306 306 306 306 306 306 307 307 306 306 307 307 307 308 308 308 308 309 310 310 311 311 312 312 312 313 313 313 314 316 317 318 318 318 319 321 321 320 321 321 319 318 319 320 318 316 317 317 316 317 316 316 316 318 320 321 322 322 321
299 299 299 298 299 301 301 302 301 301 301 301 302 301 301 301 302 301 300 298 300 303 305 305 305 306 306 306 305 305 306 306 306 306 307 307 307 307 306 306 306 307 307 307 307 307 308 309 309 310 310 311 312 313 313 313 313 314 314 315 317 318 318 319 320 320 321 321 319 318 319 319 320 319 317 317 317 317 317 317 317 317 317 318 319 321 321 321
300 299 300 299 300 300 301 301 301 301 301 302 302 301 301 302 301 301 301 299 300 303 304 304 305 305 305 305 305 305 306 306 306 306 306 307 307 307 307 306 306 306 306 306 306 307 308 308 309 310 310 310 312 313 313 313 314 313 312 314 316 317 318 318 318 319 320 318 317 318 319 320 320 318 317 317 317 317 316 316 318 318 318 318 319 320 320 321
300 299 300 300 300 300 300 301 301 301 301 302 301 301 301 301 300 301 301 300 301 303 304 304 304 304 305 305 305 305 305 305 306 306 305 306 307 307 307 307 307 306 306 307 306 307 308 308 309 310 310 311 312 312 312 313 313 312 311 313 315 315 316 316 317 317 317 316 316 317 319 320 319 317 317 317 316 317 316 316 317 317 318 318 318 319 319 320
300 300 300 299 299 300 300 300 300 300 301 301 301 301 301 300 300 301 301 300 302 303 303 304 304 304 304 304 304 305 306 306 306 305 305 306 306 306 306 307 308 307 306 306 306 306 307 308 309 310 311 311 312 312 312 312 312 312 312 312 314 314 314 314 315 317 318 317 318 318 319 321 319 317 318 317 316 317 316 317 317 317 318 318 318 317 318 318
300 300 300 299 299 299 299 300 301 300 300 301 301 301 301 300 301 302 301 301 302 302 303 304 304 303 303 304 304 305 305 305 306 305 305 306 306 306 306 307 308 307 306 306 306 306 306 306 307 309 310 310 312 311 311 312 312 313 313 313 313 313 313 314 314 317 319 320 319 319 320 321 318 316 317 317 317 317 317 316 316 316 317 317 318 317 317 318
300 301 300 299 299 299 299 300 300 300 300 301 301 301 301 301 301 302 301 301 301 302 303 303 303 303 303 303 304 304 304 304 305 305 305 306 306 307 306 306 307 307 307 306 306 306 307 307 307 307 308 309 311 311 311 312 312 313 314 313 313 313 313 313 313 314 315 316 317 317 319 320 317 318 318 317 318 318 318 318 316 316 317 317 317 317 317 318
300 301 300 299 300 299 300 300 300 300 301 301 301 301 300 300 301 301 302 302 301 302 302 302 302 302 302 302 303 304 303 303 304 305 305 306 306 307 307 306 307 308 307 307 306 306 306 307 307 306 307 308 309 310 311 311 311 313 313 313 314 314 313 312 312 312 312 312 313 314 317 318 318 320 319 318 318 317 319 320 318 317 317 317 317 317 318 318
301 301 300 299 300 300 300 301 300 300 301 301 301 301 300 300 301 301 302 302 302 302 302 301 302 302 302 302 302 303 303 303 304 304 305 305 305 306 307 306 307 307 307 306 306 307 306 305 307 308 308 308 309 310 310 311 311 311 312 313 315 314 314 313 312 312 312 311 310 311 313 314 316 318 318 318 318 317 318 319 319 318 316 317 317 317 318 318
301 301 300 299 300 300 300 301 300 301 301 301 302 301 300 300 301 301 301 301 302 302 301 301 301 301 301 302 302 302 303 303 304 304 304 304 304 306 306 305 305 306 305 305 305 307 306 305 307 309 309 308 309 310 310 311 312 311 310 312 313 313 314 314 313 312 312 311 310 310 311 311 313 314 314 315 315 316 317 317 319 319 317 317 318 318 319 319
301 301 300 299 300 300 301 301 301 302 302 301 301 301 299 300 301 301 301 301 301 301 301 301 301 302 301 301 302 302 302 303 303 303 304 304 304 305 305 305 305 305 305 306 306 307 306 306 305 307 308 308 308 310 310 310 311 312 311 311 312 313 313 313 312 312 313 312 310 310 309 310 311 313 313 313 314 316 317 319 321 319 317 318 318 318 318 318
301 301 300 299 300 301 301 301 301 302 302 301 301 300 300 301 301 302 301 301 301 301 301 301 301 301 301 302 302 302 301 302 302 303 303 304 304 304 305 305 304 305 306 306 306 306 306 306 305 305 306 306 306 308 310 310 311 313 313 312 312 312 313 313 313 312 313 313 312 311 310 311 313 316 317 316 318 319 319 321 322 318 317 318 317 317 317 316
300 300 299 299 299 300 301 302 301 301 301 300 300 300 300 301 301 301 301 300 301 301 301 301 301 301 301 302 302 301 302 302 302 303 303 303 304 304 304 304 304 305 306 305 306 306 305 305 305 305 305 304 305 306 308 310 311 312 312 312 312 311 311 312 312 312 312 313 313 314 313 314 315 320 322 320 320 319 317 318 319 317 317 317 317 316 316 315
300 299 298 298 299 300 301 302 301 301 301 299 298 299 299 300 300 300 300 300 300 300 301 301 301 300 300 301 301 301 302 302 302 302 303 303 303 303 304 304 305 306 305 305 305 304 304 305 304 305 305 304 305 307 308 309 309 310 310 311 312 310 309 309 310 311 311 311 313 314 314 313 313 317 320 319 318 317 316 316 317 316 317 317 316 315 314 315
299 300 299 298 299 300 301 301 301 301 300 299 299 299 299 299 299 299 300 300 299 300 300 300 300 300 301 301 301 301 302 302 302 302 302 303 303 303 303 304 305 306 305 304 304 303 304 305 305 304 304 304 305 307 309 309 308 309 309 310 310 310 309 309 309 310 310 311 311 313 313 313 313 316 317 319 319 317 316 315 315 316 317 317 315 314 314 313
300 300 300 298 298 299 300 299 299 300 300 299 299 300 299 299 299 299 300 300 300 300 299 299 300 300 301 301 301 301 301 301 302 302 302 302 302 303 303 304 305 305 304 304 304 303 304 305 304 304 303 303 303 305 307 308 307 307 307 308 308 309 310 309 310 311 311 311 311 311 311 311 312 313 314 317 320 318 316 316 315 315 316 316 315 315 314 312
300 300 300 300 299 299 299 299 299 299 299 299 299 300 299 299 300 300 300 300 300 300 300 300 300 300 300 300 301 301 301 301 302 302 302 302 302 302 302 303 304 304 304 304 304 304 305 305 304 304 303 303 303 303 305 305 304 305 305 306 307 308 309 309 309 310 311 311 311 311 310 310 310 310 310 312 313 315 316 316 315 315 316 315 314 315 315 313
300 299 299 299 299 300 300 299 298 299 299 298 298 299 299 299 300 300 300 300 300 301 301 301 301 300 300 301 301 301 301 301 302 302 302 302 302 302 302 302 303 303 303 304 304 305 305 304 304 304 304 303 303 303 303 304 304 305 305 306 306 307 307 308 309 310 310 311 311 311 311 311 311 309 310 310 309 310 311 311 311 313 314 314 315 316 315 313
299 299 297 297 298 300 299 298 298 298 299 298 298 298 298 299 300 300 300 300 301 301 301 301 301 301 301 301 301 301 301 301 302 302 302 302 302 303 303 302 303 303 303 305 305 304 305 304 303 304 304 303 304 304 304 304 305 305 305 306 306 306 306 307 308 308 309 310 310 310 311 311 311 310 310 309 309 309 309 308 309 310 310 312 315 316 314 313
298 298 297 297 298 298 298 297 298 298 299 299 298 298 299 299 300 301 301 301 301 301 300 300 301 302 301 301 301 301 301 301 302 302 301 302 302 303 303 303 304 303 303 305 305 303 304 304 303 304 304 304 304 304 304 304 304 304 305 305 305 306 306 306 307 307 308 308 309 309 310 310 310 310 310 309 308 308 308 309 309 309 309 311 314 314 313 311
297 297 297 297 297 298 298 298 298 298 299 299 299 299 300 300 301 301 301 300 300 301 301 301 301 301 301 301 302 302 301 301 302 302 302 302 302 302 303 303 304 303 303 305 305 302 303 304 304 304 304 303 303 303 304 305 305 305 305 305 306 306 307 307 307 307 308 308 308 309 310 310 309 309 309 309 308 308 308 308 308 309 310 311 312 313 312 311
295 296 296 296 297 298 298 298 299 299 299 300 300 300 300 300 300 300 300 300 301 301 301 301 301 301 301 301 302 302 302 302 302 302 302 302 302 302 302 303 303 303 303 304 304 302 302 303 304 303 303 303 303 303 305 306 305 305 305 306 306 306 306 307 307 307 307 308 308 310 310 310 309 309 309 309 308 308 308 308 308 309 309 310 310 311 312 312
295 295 295 296 297 297 298 299 299 299 299 300 300 300 300 299 299 299 299 300 300 301 301 301 301 301 301 301 301 301 302 302 302 302 302 302 302 302 302 302 302 303 303 303 304 303 303 303 303 303 303 303 302 303 304 305 305 304 304 305 305 306 306 307 307 307 308 308 309 309 309 309 309 309 309 308 308 308 308 308 308 309 309 309 309 310 311 312
Wind_Speed
12 12 12 12 12 13 13 13 13 12 12 12 12 13 12 12 13 12 11 11 13 15 16 16 17 18 19 21 20 19 19 19 19 16 14 14 14 15 14 12 12 11 10 10 9 8 7 4 4 5 6 6 8 10 10 11 12 8 3 4 5 5 6 6 7 5 1 2 4 7 2 4 4 7 7 4 5 6 5 6 7 6 5 6 6 7 9 11
12 12 13 13 13 14 13 13 13 13 13 13 13 13 13 13 13 12 12 11 12 13 15 15 15 16 17 19 19 18 18 18 19 19 16 15 16 13 7 6 7 6 6 7 6 7 7 6 6 6 5 5 8 10 9 11 12 9 3 4 6 5 7 10 10 6 1 3 2 6 2 4 2 5 8 4 5 10 7 6 10 10 9 9 9 9 8 10
13 13 13 14 14 14 14 13 12 12 13 13 13 13 13 14 13 13 12 11 11 12 14 15 15 16 16 16 16 16 16 17 20 18 13 13 13 6 1 5 4 2 3 3 6 7 8 7 7 6 4 5 9 11 10 9 10 10 7 5 6 7 9 14 17 10 4 6 5 0 4 1 6 1 6 4 4 9 8 8 11 13 15 14 13 13 11 10
13 13 13 14 14 14 14 13 13 12 12 12 13 13 13 13 13 13 12 12 11 12 13 14 15 15 15 14 13 12 12 15 14 8 6 8 5 1 4 6 5 3 4 5 6 7 7 6 5 5 4 5 8 12 11 10 9 9 9 6 6 10 9 14 20 13 8 10 8 4 3 2 6 5 5 4 4 5 8 13 15 16 19 19 17 17 15 13
14 14 13 13 13 13 13 13 13 13 12 12 12 12 13 13 13 12 13 12 12 12 12 13 13 14 15 13 11 7 7 8 2 5 5 7 6 5 9 7 6 5 4 5 5 4 4 3 3 4 4 4 7 9 10 15 13 7 9 10 11 14 9 13 17 8 8 10 5 4 3 4 4 4 7 6 5 3 2 7 14 16 18 21 19 18 18 16
14 14 14 14 13 13 13 13 13 13 12 12 12 12 12 13 13 12 12 12 12 12 12 12 13 13 12 11 9 4 4 4 2 3 3 5 3 6 13 9 6 5 5 4 4 3 3 3 4 6 5 4 6 7 9 16 15 7 9 12 15 17 12 15 16 6 7 6 2 4 8 8 4 4 8 9 11 8 3 2 6 9 12 19 21 18 19 19
13 14 14 14 14 13 13 13 13 13 12 12 12 12 12 12 12 12 12 12 12 12 12 12 12 12 11 10 7 5 9 12 5 8 7 5 9 11 13 11 5 7 6 4 3 2 2 4 5 7 5 4 6 8 11 14 16 10 8 11 15 19 17 18 21 12 6 6 6 9 9 8 5 4 8 12 15 14 11 8 3 3 4 13 20 17 15 17
14 14 14 14 14 13 13 13 13 13 13 12 12 12 12 12 12 12 12 12 12 12 12 11 11 11 10 9 7 6 12 16 10 9 7 7 14 12 11 9 5 8 6 3 3 2 3 5 6 7 5 5 6 6 9 10 11 11 10 11 13 16 18 20 22 20 13 8 9 11 9 9 9 9 10 12 13 11 11 12 10 4 5 10 14 14 13 15
15 14 15 14 14 13 12 13 13 13 13 13 13 12 12 12 12 12 12 12 12 12 12 12 11 10 9 8 7 8 11 12 9 7 6 7 8 7 8 5 5 7 6 3 2 2 3 4 6 7 5 6 8 6 7 6 5 5 7 8 10 15 19 20 17 14 14 12 10 10 9 11 14 12 10 14 14 11 11 11 12 10 8 10 11 12 14 15
15 14 15 15 14 13 12 13 13 13 13 13 13 13 13 12 13 12 12 12 12 12 11 11 11 9 8 7 6 7 5 4 6 7 10 11 6 3 4 2 4 7 7 4 3 3 3 4 5 6 6 7 8 6 8 6 4 7 11 12 12 15 19 21 18 14 14 14 12 10 9 12 16 12 7 11 13 12 16 15 12 12 12 12 12 12 13 15
15 14 14 14 14 13 13 13 13 13 13 13 13 13 13 13 13 12 12 12 12 12 11 11 10 9 8 8 11 9 2 0 4 5 9 11 7 4 4 4 2 7 7 5 4 4 6 6 5 5 4 4 5 6 9 10 10 11 12 12 12 14 16 18 16 14 12 10 13 13 10 13 16 11 8 11 10 6 12 17 14 12 12 13 14 14 14 15
15 14 14 14 13 13 13 14 14 14 14 14 14 13 14 14 13 12 12 12 11 11 11 11 10 9 9 11 15 15 9 6 9 8 10 11 9 7 6 5 3 4 6 6 5 5 7 7 5 6 5 3 4 4 5 8 10 12 11 8 9 11 13 15 13 12 11 8 12 10 9 12 12 11 13 16 16 11 10 11 13 13 13 14 14 15 16 16
14 14 13 13 13 13 14 14 14 15 15 15 15 14 14 15 14 13 12 11 11 11 11 11 10 10 10 12 15 14 13 13 14 13 12 11 11 9 8 8 6 4 5 6 7 7 8 7 5 8 10 8 6 4 3 5 6 7 8 5 6 8 10 13 13 14 13 12 14 9 7 10 9 13 19 21 20 18 16 13 12 14 15 15 15 16 17 18
15 14 14 13 13 13 14 14 15 16 15 16 16 15 15 15 15 14 13 12 11 11 10 10 10 9 9 13 13 10 13 16 17 16 14 12 12 12 10 10 8 7 7 6 7 8 8 7 6 8 10 10 10 8 7 6 5 3 5 5 5 6 7 9 12 15 13 14 18 12 8 10 7 11 21 26 25 21 19 18 16 16 15 15 16 17 18 19
15 15 14 14 13 13 14 15 16 17 17 17 16 15 15 15 15 14 13 13 12 11 11 10 9 8 9 13 13 9 11 13 14 14 12 13 14 14 11 9 9 8 6 6 6 7 7 6 6 6 7 9 10 8 5 4 4 4 5 4 5 7 6 5 11 16 13 13 19 15 8 8 7 10 16 23 29 27 22 22 21 19 18 18 18 18 19 20
15 15 15 14 14 14 14 15 16 18 18 18 17 16 15 14 15 15 14 14 13 11 10 8 6 6 7 8 9 8 8 10 12 9 8 10 13 15 13 11 11 9 8 8 7 7 8 6 6 7 6 6 6 4 3 3 4 5 6 5 5 7 6 4 8 14 15 11 16 17 9 4 5 12 19 22 26 27 23 23 24 22 21 20 19 19 20 20
15 15 15 15 15 15 16 16 17 18 19 19 18 16 15 14 14 13 13 13 12 10 9 8 6 7 8 6 6 6 6 8 8 6 6 8 10 13 12 13 12 9 10 11 9 9 7 6 5 5 5 4 4 4 4 5 6 5 5 5 5 6 6 4 5 10 15 12 12 16 12 8 5 8 18 24 28 26 21 22 25 24 23 23 21 21 21 21
15 15 16 16 16 16 17 17 17 18 18 18 17 15 15 14 12 12 12 10 9 9 8 7 5 6 5 3 6 6 5 6 7 8 8 7 7 9 10 11 10 9 10 10 9 9 7 6 5 3 3 4 5 6 6 6 5 5 5 5 5 7 7 7 6 5 12 14 12 12 12 12 9 9 16 21 23 21 18 20 25 25 24 23 22 22 23 22
16 16 16 17 17 17 17 17 17 17 18 17 15 16 14 12 11 10 8 5 6 6 4 3 4 4 3 2 5 5 5 8 10 10 6 5 6 6 7 8 8 9 9 7 7 11 8 5 5 5 5 6 7 8 9 6 5 6 6 4 4 5 6 8 9 7 6 9 9 10 11 10 10 11 15 21 22 19 21 21 22 24 23 23 23 23 24 24
17 17 17 18 18 18 18 17 17 16 17 16 16 15 13 12 9 5 5 5 9 9 10 10 8 10 11 9 7 6 10 11 9 7 3 5 6 5 6 7 7 8 8 6 5 11 10 6 6 7 7 8 9 11 11 9 9 10 7 4 5 4 4 5 5 4 3 4 6 8 10 9 11 11 11 19 23 19 20 19 15 16 18 21 22 22 23 23
17 17 18 18 18 19 18 17 17 16 15 14 14 12 10 12 8 5 9 10 11 12 16 16 12 13 13 12 11 10 11 10 9 7 5 6 5 4 5 8 7 5 7 8 7 5 6 7 8 9 9 9 10 10 11 11 12 11 8 5 6 5 5 5 4 1 2 1 3 4 7 8 10 10 10 13 15 15 18 15 13 16 18 19 20 20 21 21
19 19 18 18 18 18 17 17 16 15 14 12 11 8 8 11 10 9 10 11 14 14 15 15 14 15 15 15 15 12 9 9 12 12 9 8 4 3 5 7 7 5 6 8 7 3 4 7 10 9 9 10 10 10 10 12 12 10 7 6 6 5 5 6 6 5 1 0 2 3 5 7 8 9 12 12 10 13 19 19 17 19 21 22 22 21 22 22
21 20 19 19 18 17 17 16 15 14 13 11 9 8 10 11 10 9 8 10 15 14 12 14 15 16 15 14 12 11 10 10 12 12 11 9 5 7 8 4 5 6 5 6 7 6 6 7 9 11 11 10 9 9 10 10 9 8 6 6 6 6 6 5 5 7 6 3 2 3 5 6 7 9 11 16 20 18 20 22 24 24 23 24 25 24 24 24
21 20 19 19 18 17 17 16 15 14 12 10 9 10 11 10 8 7 6 7 9 9 9 11 11 10 10 10 8 10 11 9 10 10 8 9 8 7 7 6 5 5 6 7 9 9 9 8 9 11 11 10 10 10 9 7 6 7 8 8 7 7 8 7 5 7 7 4 2 3 6 6 6 10 10 13 19 21 23 24 25 27 28 27 27 27 28 27
21 19 18 18 17 16 16 15 14 11 9 8 8 9 8 7 5 5 5 5 5 4 4 5 5 5 6 8 7 7 7 10 13 11 7 8 9 6 5 6 5 4 7 9 9 9 10 13 13 10 8 9 9 9 8 7 5 6 8 9 9 9 10 9 8 7 6 5 2 2 5 6 6 10 11 10 11 16 22 22 21 25 27 27 29 29 29 29
21 19 17 16 15 14 14 12 9 7 6 6 4 6 6 5 5 4 2 3 3 0 2 2 3 2 3 4 5 5 4 7 10 10 9 8 8 7 5 4 3 4 6 5 5 5 6 10 12 11 9 7 7 7 8 7 5 6 6 7 9 11 11 11 9 6 4 5 3 4 4 6 4 7 9 9 11 14 17 16 20 26 26 26 28 29 28 28
22 19 15 14 12 12 11 8 7 7 5 5 3 4 6 5 5 4 1 2 2 1 3 2 1 1 2 1 4 5 1 6 8 3 7 8 7 6 6 4 3 4 3 0 3 3 3 6 8 9 10 8 6 6 7 7 6 6 4 4 6 8 10 10 8 7 5 5 5 5 5 7 7 6 6 6 8 11 12 13 16 23 28 28 29 30 29 28
21 19 15 12 10 9 9 8 9 8 6 7 5 4 5 4 2 1 1 3 1 2 2 2 2 1 2 2 4 6 5 9 5 3 1 5 7 5 4 5 5 6 3 2 4 3 2 1 5 7 8 8 7 7 6 6 7 6 3 3 5 6 5 4 4 4 4 4 5 6 6 7 9 7 6 6 9 10 10 12 12 17 26 29 29 30 30 30
21 19 13 10 8 7 7 8 9 9 8 8 5 3 3 1 1 1 1 3 0 2 3 2 1 1 2 2 3 8 9 8 3 4 5 2 6 5 4 5 5 7 6 4 6 6 2 3 2 5 5 5 7 8 7 7 6 3 2 4 5 5 5 2 1 2 3 4 6 8 7 7 9 7 5 7 10 11 10 9 10 15 23 27 29 32 33 33
22 19 13 8 7 5 6 6 8 8 6 6 5 3 1 4 2 0 1 2 1 3 3 1 2 2 3 1 1 4 6 6 5 6 4 1 4 5 5 7 4 4 5 5 7 10 8 7 5 3 5 6 7 7 7 8 8 4 2 4 5 4 4 3 2 2 2 5 8 12 12 9 9 7 5 6 7 8 8 9 10 14 18 22 27 33 35 35
22 19 12 7 6 6 6 5 7 6 2 5 5 4 6 5 0 1 1 0 2 2 3 1 2 2 1 1 2 1 3 5 5 4 2 1 1 3 2 4 3 1 3 5 7 9 8 8 5 5 8 9 8 7 7 8 9 6 2 2 4 3 3 2 2 3 4 7 9 12 13 12 11 7 4 5 8 8 7 8 9 11 16 21 23 27 32 34
20 18 13 8 5 5 4 4 7 4 2 5 5 6 6 2 0 1 2 1 2 2 4 4 2 1 3 4 2 2 2 2 2 3 3 2 1 1 1 1 1 1 3 3 4 6 5 6 7 8 11 9 4 4 5 6 6 5 3 3 3 3 3 3 4 4 5 7 8 8 9 10 11 10 8 10 12 12 9 8 8 7 9 13 12 15 22 24
18 17 15 11 8 6 3 4 5 1 4 6 8 6 2 0 1 1 2 2 1 2 4 5 3 3 4 3 3 3 1 1 1 4 3 1 1 2 3 4 3 1 2 2 4 4 3 5 8 7 8 11 8 3 3 4 4 5 5 4 4 4 4 5 5 5 6 8 7 7 7 6 7 9 12 14 16 16 18 22 22 15 7 6 7 7 12 16
17 18 17 15 11 7 3 2 3 4 5 7 9 3 1 1 0 1 2 2 2 2 2 3 4 3 3 2 2 3 1 1 1 2 1 1 1 2 3 4 5 4 1 2 3 3 3 4 5 5 5 9 10 8 7 5 4 6 5 5 6 5 5 5 4 4 4 5 6 7 6 5 5 6 8 11 14 20 26 30 30 25 16 13 14 15 15 18
15 15 17 18 15 8 2 4 5 6 5 8 7 1 0 1 2 3 3 2 2 2 3 4 3 2 4 2 1 0 2 1 0 0 2 2 2 3 2 3 5 5 1 1 2 2 4 5 5 7 8 8 10 12 11 7 6 5 3 4 7 7 6 5 5 4 2 3 3 3 4 4 4 7 7 7 9 13 20 23 25 27 25 21 21 24 27 26
11 11 16 21 19 10 5 7 8 8 7 6 3 1 1 1 3 2 2 3 3 4 5 4 2 1 3 2 1 2 2 2 2 2 2 3 3 4 2 2 2 5 5 3 1 1 3 5 3 5 8 7 7 6 9 9 5 3 4 6 6 5 4 5 6 6 5 6 5 3 4 5 5 9 9 10 11 7 9 11 13 19 24 24 24 28 30 29
9 8 15 21 18 10 7 9 9 10 8 4 1 1 1 0 3 3 4 5 4 4 4 3 2 1 2 3 3 2 3 2 3 2 2 2 3 3 3 3 3 5 6 4 2 2 2 6 5 6 11 10 5 6 4 8 6 3 3 5 3 1 1 2 4 5 6 8 6 6 8 6 4 5 5 8 12 10 9 9 9 12 15 17 22 25 25 25
8 6 15 21 16 9 9 9 10 11 7 3 1 2 1 1 3 5 7 7 5 5 4 2 1 2 3 3 4 4 3 0 2 1 2 3 2 2 2 1 3 5 4 4 1 0 1 4 5 3 6 7 5 6 4 7 9 7 5 4 0 1 3 3 2 4 6 7 6 8 9 7 6 5 4 6 9 9 8 9 9 11 12 15 19 19 16 17
7 4 11 18 14 10 10 10 11 9 4 1 2 2 1 1 3 4 5 5 4 4 3 2 1 2 4 3 5 5 2 1 3 1 1 2 2 2 1 2 1 2 4 9 3 2 2 1 3 2 2 4 3 1 3 4 6 5 5 4 2 3 4 3 3 4 6 6 6 7 7 5 6 6 8 12 12 11 10 8 9 10 10 12 12 8 5 6
7 2 6 13 12 11 10 9 8 4 1 2 2 1 0 1 4 5 4 4 4 3 2 3 4 2 3 4 5 4 2 3 4 1 1 2 4 3 1 0 3 5 4 6 1 2 1 2 3 2 2 1 1 3 3 4 4 1 2 5 4 3 3 2 2 2 3 4 5 6 7 5 4 4 8 12 12 10 9 6 4 2 6 7 4 2 3 5
7 2 3 9 8 10 8 4 2 1 1 3 2 1 0 2 5 6 6 4 3 2 2 3 5 4 3 4 4 4 4 3 3 2 2 2 3 2 3 4 3 2 2 2 0 1 1 1 2 4 4 3 5 5 3 5 6 3 3 4 5 5 4 5 5 4 2 3 4 5 6 5 3 2 2 4 4 3 4 3 3 5 8 5 1 2 5 8
7 2 3 6 4 4 2 1 1 1 1 2 1 1 3 4 4 4 5 5 4 3 1 1 4 4 3 3 3 4 4 3 3 3 2 3 3 4 5 6 2 2 3 3 1 1 1 0 2 5 5 6 10 10 4 2 4 3 2 3 3 3 3 4 6 4 3 5 5 5 6 5 3 3 4 4 3 3 5 5 5 6 6 4 2 4 6 8
6 4 5 5 3 4 4 2 1 1 2 2 2 3 4 4 3 3 3 3 3 3 1 1 3 3 3 3 3 4 4 3 5 5 4 5 4 5 8 6 2 2 2 3 2 1 0 0 1 4 4 7 10 8 2 2 1 1 3 4 4 5 7 6 6 5 3 4 5 6 7 6 5 6 5 5 5 3 3 3 4 5 5 4 3 2 4 6
3 2 5 6 5 7 5 1 1 2 2 2 1 2 3 3 3 3 3 0 1 2 2 1 3 4 3 4 3 4 4 3 4 4 5 5 3 5 8 7 4 2 2 4 2 1 1 1 0 3 5 6 5 2 2 3 2 0 3 5 7 9 11 8 7 5 3 6 8 7 7 5 4 6 5 4 6 4 2 3 4 3 0 2 2 1 2 6
2 2 1 5 7 7 5 3 3 3 2 3 2 1 1 2 3 4 4 4 4 4 2 3 5 5 3 3 3 3 4 4 3 4 4 3 4 7 8 7 5 4 6 7 1 4 2 1 1 1 3 4 4 3 2 2 2 2 4 7 9 11 11 9 7 6 5 7 10 8 6 6 7 8 7 5 6 5 2 2 4 6 5 4 5 5 4 7
3 1 1 3 5 4 5 5 3 3 3 3 3 3 4 3 4 4 4 5 5 4 5 7 8 7 4 3 3 4 5 6 5 4 5 4 4 6 10 13 12 11 13 10 3 5 1 3 4 4 5 7 7 8 6 4 5 7 9 10 10 10 11 10 8 8 7 7 8 8 7 10 13 13 11 9 9 9 6 5 7 9 11 11 12 11 8 7
3 1 1 2 2 1 5 7 7 5 4 4 3 3 4 4 5 4 2 3 2 3 5 6 3 2 3 4 4 4 5 5 6 6 7 7 6 8 14 17 16 16 17 12 6 5 1 4 6 7 10 11 11 13 13 9 8 11 12 13 13 11 10 9 10 12 10 8 9 10 9 11 13 13 11 11 12 12 10 10 12 15 17 17 15 12 10 9
2 2 2 2 1 1 3 6 8 6 4 4 2 2 4 5 5 3 1 3 3 2 2 3 4 4 6 6 5 5 5 5 5 6 6 6 5 6 8 10 11 14 13 7 6 5 2 5 5 6 10 13 12 14 14 10 10 12 12 14 15 14 13 12 13 14 13 11 11 12 13 12 12 14 14 13 13 12 12 16 20 22 22 18 13 11 11 12
4 3 3 3 2 3 4 4 5 5 4 3 2 2 3 5 5 3 1 1 3 2 2 3 4 4 5 6 5 5 5 5 5 5 4 6 6 5 5 6 6 7 4 1 3 3 3 3 4 5 9 11 12 13 13 12 12 13 14 15 15 15 16 14 14 15 16 15 15 16 17 15 13 15 18 20 21 22 22 25 25 25 23 17 13 14 15 16
5 2 3 5 4 5 4 3 2 3 3 3 2 3 4 5 5 4 1 3 4 3 3 4 6 6 6 6 5 5 7 7 7 7 7 6 6 5 4 3 2 3 3 1 1 1 3 2 3 2 5 10 13 12 11 11 12 13 14 15 15 16 16 15 14 13 14 15 16 18 19 15 12 14 19 24 28 26 24 26 27 27 26 21 18 19 19 20
5 2 2 4 4 3 2 3 4 3 3 2 2 2 2 3 7 9 7 8 8 4 2 5 7 6 6 7 7 7 9 9 9 11 11 9 9 9 7 4 4 4 2 2 1 2 3 2 2 1 3 10 12 8 7 9 9 11 15 17 18 16 13 13 12 10 12 14 15 15 14 12 11 14 17 22 23 19 17 22 26 28 30 29 26 24 22 23
3 2 1 2 2 2 2 3 4 3 2 2 3 4 5 6 10 10 8 7 7 7 7 9 9 7 5 7 7 9 13 15 15 18 18 17 17 18 17 15 14 9 5 3 3 3 4 2 3 2 2 10 13 7 5 6 6 8 12 15 15 14 13 14 13 12 14 13 11 11 11 11 13 14 15 17 17 15 17 24 27 26 28 30 30 28 25 23
Wind_Direction
336 336 334 332 330 329 328 327 327 325 320 320 320 319 323 321 321 324 323 312 294 288 291 294 293 290 288 286 287 291 300 311 315 314 302 286 275 279 290 300 303 294 278 277 280 285 274 219 216 242 235 244 237 239 240 229 228 229 228 228 235 239 241 250 252 254 110 116 147 142 204 266 162 168 200 208 208 219 198 177 180 165 177 193 167 173 183 182
341 340 339 338 337 335 331 327 325 322 320 318 315 315 317 316 319 321 321 319 305 290 289 294 298 297 294 289 287 290 300 312 315 308 294 282 281 281 289 316 318 305 280 269 266 272 266 223 217 234 228 244 233 226 232 216 210 218 225 232 229 238 253 261 265 263 295 320 36 117 157 278 266 166 177 197 207 206 208 190 186 171 173 196 186 192 207 193
346 345 342 340 339 338 335 331 327 322 320 318 315 314 315 315 316 319 319 319 315 299 290 292 298 302 301 297 292 290 300 314 314 303 285 275 273 261 4 0 341 331 347 290 252 253 257 243 236 245 252 261 234 219 222 210 207 216 221 241 232 238 255 268 276 273 255 290 315 110 135 196 302 303 160 203 231 201 207 201 189 182 185 196 198 205 216 203
346 347 344 341 339 337 337 336 332 327 322 319 317 315 313 313 313 316 317 316 315 306 295 291 295 300 304 308 302 293 305 316 307 278 251 253 233 129 15 8 18 47 26 314 276 260 258 253 247 249 260 275 245 230 224 211 211 213 216 237 240 251 259 260 270 278 261 253 268 280 119 166 278 273 210 222 254 226 220 212 203 198 193 198 205 209 215 212
347 347 346 343 341 339 337 336 336 333 329 324 320 317 315 315 313 313 314 314 313 308 300 293 293 296 302 311 310 296 307 311 275 162 198 209 161 58 12 16 9 37 60 331 315 297 266 231 239 242 236 264 254 244 230 216 218 229 234 241 243 255 268 260 266 303 297 258 250 282 261 252 253 240 241 241 246 256 280 218 207 204 198 202 207 207 210 214
347 347 346 345 343 340 337 337 337 335 333 330 325 321 319 317 315 313 312 312 312 309 301 296 294 295 300 312 310 278 263 259 90 64 202 182 167 357 10 15 0 54 75 345 330 315 271 211 218 224 216 230 244 246 236 219 220 241 251 247 249 252 260 270 278 337 344 305 294 273 272 266 229 216 240 240 244 249 332 3 182 189 196 203 204 202 204 210
346 346 344 344 343 341 339 336 337 336 334 333 329 327 322 319 317 315 315 313 312 310 304 299 293 293 300 311 308 257 245 241 266 326 282 263 289 307 3 9 7 59 59 332 312 294 259 225 219 227 227 224 231 238 248 239 229 238 248 245 251 255 255 265 277 288 308 315 295 282 293 282 232 233 247 239 246 247 266 294 265 170 168 190 193 198 204 209
343 341 338 338 340 339 339 337 337 336 334 333 332 329 324 322 320 318 317 315 313 312 309 303 294 293 299 311 317 269 251 246 258 312 296 284 292 304 5 13 16 31 19 338 326 305 260 237 226 237 240 238 245 238 257 265 246 244 251 247 249 259 258 256 265 275 279 274 275 280 283 272 255 263 267 251 250 244 255 274 267 228 154 176 193 203 207 209
344 339 336 335 335 335 337 338 337 336 334 332 330 328 325 323 321 320 318 316 315 313 309 307 301 294 294 304 311 279 259 246 250 297 295 286 306 336 6 14 40 16 349 347 348 311 255 246 240 246 252 271 283 275 275 279 253 272 302 293 271 268 269 263 262 272 280 272 265 270 261 259 261 265 267 255 252 248 250 258 254 238 196 187 204 217 217 214
348 345 342 339 336 333 333 333 332 333 332 329 328 325 323 322 321 319 318 318 316 313 310 307 306 297 290 290 277 269 267 236 240 278 288 277 278 345 335 317 55 21 349 355 354 325 298 298 291 283 282 284 286 277 273 272 294 327 328 323 304 287 276 267 262 252 258 267 262 263 261 260 259 257 250 244 250 247 240 237 235 233 219 207 209 219 225 222
348 348 348 346 343 339 336 335 332 330 326 324 324 321 320 319 318 318 318 320 317 316 312 305 307 298 283 274 258 245 197 283 275 283 299 291 273 278 278 249 43 16 351 348 343 332 323 310 298 292 271 258 260 256 257 258 281 301 305 310 302 298 286 268 265 250 246 257 251 258 267 262 257 252 241 238 254 263 235 226 221 222 221 218 214 216 225 227
345 346 348 348 347 346 344 342 339 335 330 324 318 315 315 313 313 314 315 317 317 317 314 309 307 297 286 274 261 248 223 253 286 282 290 298 286 284 289 271 291 356 341 334 324 311 314 305 276 260 254 268 263 246 248 246 263 279 284 299 293 293 282 262 259 250 247 250 246 261 274 255 243 240 239 238 245 260 258 234 221 226 226 220 218 217 223 230
339 341 343 343 345 346 346 344 342 340 336 330 322 313 311 311 311 311 310 311 314 316 315 313 305 298 291 276 269 264 252 262 278 280 277 280 283 287 293 288 284 306 315 311 306 300 300 301 280 258 264 280 275 275 306 255 247 263 255 261 280 282 264 250 248 242 240 242 237 243 261 247 233 229 230 236 241 240 243 239 228 232 230 222 221 221 224 230
332 334 337 338 339 341 342 343 342 341 338 335 328 318 310 308 309 309 308 307 309 314 314 315 307 298 285 279 282 276 267 272 274 276 274 267 276 284 283 286 293 304 304 297 300 297 288 288 281 266 264 263 273 304 314 264 239 245 239 227 229 252 253 234 231 232 232 231 219 217 251 247 239 231 222 226 234 234 233 231 226 227 229 225 224 222 221 227
330 328 328 330 332 332 334 337 339 339 338 336 331 324 313 304 304 305 306 306 308 312 312 315 310 294 284 288 291 278 271 279 281 286 286 272 269 276 275 275 285 285 278 287 298 289 283 288 278 270 264 243 255 290 305 259 238 214 229 229 201 231 260 239 224 224 225 219 202 205 251 247 235 248 236 227 225 225 228 229 227 223 226 226 224 224 219 223
326 324 320 321 322 322 324 328 333 335 335 336 334 328 319 308 302 300 304 309 311 310 308 316 321 305 293 292 289 280 278 280 288 301 298 281 269 267 268 266 276 274 263 280 294 288 288 289 270 263 267 241 227 242 254 256 241 209 218 231 215 225 243 243 229 221 222 218 199 205 232 243 223 235 240 242 234 224 221 226 230 225 224 224 221 221 219 218
319 319 316 314 314 314 315 317 324 328 331 336 335 331 327 317 309 304 303 304 306 307 304 302 301 291 277 280 290 287 289 282 287 296 279 277 268 260 261 259 267 268 267 283 282 269 270 270 262 252 247 238 225 213 213 229 224 210 216 235 244 245 252 248 227 214 217 220 209 211 224 236 251 248 240 241 242 238 225 221 227 226 223 224 219 217 218 217
310 310 310 309 308 309 309 312 317 320 327 335 334 331 330 325 321 310 299 299 303 303 299 286 270 279 260 255 303 297 296 295 296 302 283 272 267 257 253 249 254 259 264 276 262 242 239 235 235 242 223 214 223 215 209 219 221 212 216 227 237 243 257 263 264 235 215 218 220 218 225 230 239 267 267 255 247 250 248 233 225 224 224 224 220 215 216 218
310 307 305 305 305 307 308 311 314 316 325 334 333 330 332 338 333 314 304 297 283 281 299 275 224 270 305 317 320 299 288 299 309 319 301 263 269 264 249 240 241 246 251 255 219 203 207 219 224 234 228 213 214 217 221 237 252 251 246 241 241 236 237 243 254 257 226 222 227 229 237 239 231 234 252 259 258 260 265 256 230 217 222 228 225 218 215 217
319 313 308 306 305 305 307 311 313 317 325 333 335 336 341 347 341 331 341 286 253 264 289 290 260 269 294 304 307 295 295 305 313 331 318 261 275 284 259 227 223 230 234 250 214 189 194 217 225 223 229 228 224 224 231 246 258 268 281 283 278 274 257 246 237 216 209 231 228 234 249 252 251 244 231 238 246 253 260 262 245 223 226 232 230 225 220 219
324 318 313 310 307 306 307 309 312 315 322 329 333 334 338 342 337 327 332 301 271 272 275 281 276 267 273 274 276 288 303 306 291 289 287 272 283 291 239 199 210 227 211 236 255 210 201 226 228 222 230 241 243 239 236 243 251 259 272 279 275 274 274 292 310 165 143 258 247 252 267 258 256 269 264 239 233 241 247 249 249 246 248 248 244 240 236 230
325 321 315 311 308 306 305 305 308 311 317 323 322 315 314 325 321 308 314 299 289 284 268 269 268 261 265 267 271 277 281 278 276 275 270 267 261 241 221 185 203 232 204 220 244 243 230 242 241 237 240 242 248 256 249 245 246 248 255 261 262 265 275 292 296 286 271 89 285 288 281 272 266 270 277 271 258 248 246 244 239 240 245 251 252 252 250 246
326 322 318 314 309 305 302 301 301 302 309 315 305 294 298 304 303 303 304 290 293 292 269 257 254 256 265 273 273 257 245 254 272 276 263 249 224 228 244 227 223 235 220 212 215 221 231 236 236 237 247 250 247 253 254 251 246 239 240 247 250 254 266 274 269 266 258 225 254 288 266 265 272 266 264 266 269 269 262 254 246 240 239 244 250 252 251 251
325 320 317 314 310 307 303 298 296 299 304 305 295 292 298 297 290 298 297 278 286 290 262 247 248 256 265 276 268 237 237 250 263 273 256 230 221 225 241 251 253 244 231 225 222 231 243 247 236 225 229 241 245 243 245 250 250 240 234 240 251 251 252 257 266 276 277 276 321 322 282 265 245 253 254 250 257 263 262 258 252 245 240 241 248 250 246 247
324 319 315 312 311 308 305 303 301 301 297 288 289 296 298 294 284 293 301 276 269 271 247 230 232 248 263 269 255 232 251 266 260 258 243 225 227 231 239 240 243 245 238 238 235 237 246 252 257 256 236 228 235 239 236 238 250 247 232 231 244 257 264 263 265 276 280 270 236 179 269 270 222 231 244 233 232 242 245 247 249 246 239 234 241 246 241 240
323 319 315 312 311 308 308 311 307 299 291 274 283 309 303 302 298 298 309 283 269 211 90 140 194 255 296 259 237 233 257 288 287 267 242 232 233 246 265 235 211 249 252 255 259 254 255 251 255 269 270 253 241 237 234 233 248 254 237 237 241 243 252 259 264 265 261 265 239 187 236 269 249 230 239 232 226 232 232 234 240 243 240 231 233 241 240 236
325 321 316 312 311 306 303 303 299 297 296 287 309 331 316 319 310 291 253 258 276 52 58 74 141 356 15 156 199 200 252 340 345 311 239 242 238 240 260 250 225 252 250 302 264 240 247 249 243 250 259 264 256 240 228 221 236 251 253 284 278 253 241 245 254 251 256 282 277 255 256 274 271 245 248 258 249 244 234 229 234 238 240 237 232 236 239 237
332 327 322 313 309 302 289 282 288 287 282 291 315 335 317 325 324 275 254 266 280 32 36 63 71 67 84 90 197 218 312 338 348 26 330 245 233 220 235 259 272 271 246 185 242 259 60 190 238 251 247 241 243 246 243 236 240 251 286 328 295 289 287 260 249 256 280 293 267 251 245 264 269 247 237 256 259 259 248 238 236 233 237 237 233 234 238 240
343 338 331 316 312 305 287 281 280 274 272 281 291 306 306 357 109 130 283 273 279 17 9 79 90 93 122 107 208 241 295 322 316 355 10 228 230 229 243 280 311 313 291 233 239 271 356 57 336 310 279 246 246 247 244 248 251 260 341 324 289 289 307 294 228 275 301 277 246 236 224 242 266 256 230 231 237 244 247 248 247 240 236 232 228 230 235 238
352 346 341 331 331 328 312 305 288 279 274 257 245 252 184 133 129 119 261 263 49 359 337 54 81 98 154 182 219 242 282 302 302 322 339 204 223 228 262 290 303 329 306 266 254 264 273 288 299 294 273 284 294 278 262 257 258 262 288 301 302 287 271 265 160 139 267 255 237 232 225 234 259 251 224 234 241 236 233 235 242 245 243 235 226 225 229 233
357 357 0 2 356 338 335 337 318 312 275 214 207 178 147 133 15 275 210 295 37 335 304 45 88 111 157 326 347 254 280 298 303 307 284 178 163 203 264 288 249 236 288 269 267 264 261 271 271 241 256 286 316 309 292 278 264 261 247 262 289 269 243 249 185 170 230 244 237 230 221 228 249 248 211 244 257 247 234 224 226 233 237 239 236 229 226 226
2 8 12 12 360 336 334 332 324 332 166 185 180 163 154 141 280 237 260 307 39 333 338 19 40 15 343 353 0 326 326 304 299 343 329 325 14 245 230 225 204 289 265 250 273 265 243 233 226 235 245 249 280 306 287 279 261 246 234 231 254 246 224 223 209 203 232 245 247 235 215 220 246 258 252 257 262 260 265 274 269 255 235 241 248 234 223 218
7 14 12 8 357 345 340 325 329 47 141 156 162 173 187 62 161 228 299 346 358 309 358 5 357 6 341 334 355 344 351 271 332 28 14 342 309 272 233 218 202 220 256 308 324 299 266 224 204 217 229 208 208 236 240 246 239 226 219 212 222 231 235 233 224 223 239 254 246 215 210 229 250 252 240 242 252 255 261 268 271 274 268 252 259 244 224 216
9 18 14 11 1 345 343 352 37 99 126 138 147 163 7 89 89 3 21 41 301 281 27 354 331 356 320 284 344 343 337 298 347 51 2 283 271 268 244 222 197 186 232 311 299 284 292 272 205 195 200 183 191 211 222 249 258 231 218 216 220 222 233 236 234 230 235 269 249 196 196 216 219 234 228 225 234 237 242 248 252 254 250 239 241 246 245 234
10 12 2 7 8 1 53 99 95 104 119 134 143 175 63 117 8 16 21 359 290 323 357 299 293 330 299 254 186 38 35 348 2 342 262 241 252 252 235 228 193 175 164 252 265 245 245 269 252 229 222 190 193 206 209 232 261 240 218 230 229 223 231 246 263 263 258 295 269 199 216 234 245 284 278 255 245 229 231 236 235 237 238 236 237 242 246 244
18 3 351 5 11 14 91 116 113 112 118 133 144 333 83 29 3 5 343 325 301 342 334 291 273 288 299 317 206 137 79 304 307 335 273 233 259 254 225 276 211 167 172 192 283 311 230 252 305 300 276 240 221 221 205 212 243 244 202 224 239 230 227 249 269 269 258 264 253 217 254 269 291 297 280 264 269 252 230 236 231 230 233 235 237 238 241 241
34 8 358 10 15 28 92 115 114 116 124 142 139 41 128 46 0 341 338 338 313 327 341 332 7 338 323 347 325 31 72 323 323 331 287 272 260 218 197 263 247 198 200 204 286 342 294 284 305 314 290 270 284 330 273 235 254 273 229 237 269 4 141 225 259 253 241 254 246 224 239 244 247 267 249 242 254 248 230 229 236 236 231 231 239 243 243 240
42 15 8 17 24 56 98 112 113 118 130 148 103 64 137 278 355 344 344 346 328 334 350 329 338 349 350 346 327 6 73 46 334 356 306 291 252 119 102 265 234 229 208 111 54 299 112 294 295 295 287 291 335 354 308 249 227 226 274 315 25 239 230 191 221 236 226 243 252 238 238 234 231 253 280 271 264 257 238 218 221 229 224 230 242 249 251 243
23 13 14 20 39 83 101 102 105 114 123 92 50 37 7 316 324 327 340 343 326 321 323 320 358 354 346 340 325 343 53 253 305 346 60 279 279 57 41 253 250 263 128 108 103 276 122 256 291 17 10 353 6 326 277 262 215 211 297 315 166 221 243 201 221 245 233 241 253 246 240 232 228 239 259 265 268 274 269 251 238 226 207 212 226 237 252 241
10 44 26 16 42 88 103 99 96 99 85 58 48 23 54 307 311 320 333 339 332 320 319 343 350 334 332 331 312 306 312 308 302 278 154 280 295 321 305 230 23 12 60 106 136 298 71 238 273 333 359 332 281 225 229 261 251 201 268 255 234 244 274 287 267 243 242 252 248 247 247 237 227 227 242 254 260 269 271 269 263 185 130 139 153 164 256 269
1 73 26 1 35 88 108 104 70 43 80 91 88 89 293 303 313 324 327 321 305 288 308 329 316 304 306 308 306 313 316 311 303 270 236 266 281 307 20 60 65 5 8 30 329 179 161 248 276 305 309 280 265 261 263 277 274 248 188 228 249 246 258 274 251 219 212 243 241 255 260 248 241 263 280 281 302 323 323 349 32 73 92 101 86 301 286 284
19 60 4 352 25 69 77 263 293 327 67 64 52 308 320 311 307 334 343 333 297 267 248 316 292 293 290 281 293 311 310 296 295 275 257 288 275 278 347 37 94 255 292 298 296 146 146 329 263 274 277 265 264 263 259 277 283 274 215 210 222 241 259 258 252 253 247 242 247 257 260 258 276 320 355 353 338 346 351 355 7 29 53 66 31 326 300 292
39 40 6 4 23 6 342 242 179 61 75 50 6 315 326 325 318 336 340 332 296 276 246 225 253 255 281 308 311 304 315 287 258 243 250 277 270 276 320 345 343 294 294 279 286 89 171 240 256 277 274 267 266 262 263 62 54 277 248 227 213 230 241 240 253 277 283 261 261 254 251 253 266 282 309 338 324 333 25 6 352 4 17 32 32 340 307 309
33 22 15 19 25 12 355 314 18 30 69 52 337 275 293 293 284 296 300 279 271 298 323 270 233 212 243 315 317 303 325 302 249 259 268 265 270 286 298 305 286 243 258 293 327 73 265 248 74 312 306 304 303 308 9 24 45 295 270 269 261 249 244 242 245 254 257 254 256 254 255 257 264 271 283 319 316 321 30 2 332 332 312 170 181 225 335 348
298 242 50 35 38 39 40 47 19 3 23 7 329 321 346 285 254 267 289 284 262 266 289 288 298 299 287 312 313 285 292 274 267 305 287 268 308 306 303 311 300 265 279 299 60 128 258 275 155 263 283 289 294 291 322 355 338 295 275 273 274 263 255 253 247 242 239 245 249 249 255 270 276 276 279 291 292 282 270 268 277 284 279 246 235 256 309 340
317 273 152 61 47 68 92 76 30 338 9 9 342 6 20 342 299 289 286 280 264 250 248 265 307 325 287 259 278 262 254 246 243 270 280 280 300 298 299 303 296 282 284 285 182 142 271 261 210 220 236 248 261 267 282 309 301 284 277 275 277 270 261 259 252 248 245 247 248 244 254 272 273 269 274 282 280 277 272 250 237 249 256 252 253 262 277 301
336 9 54 17 356 144 114 72 31 356 354 357 345 356 354 328 318 310 229 222 285 303 261 243 256 307 268 272 282 264 263 260 250 261 275 278 272 273 283 287 281 275 276 267 209 161 264 259 226 225 240 249 258 267 276 286 277 274 279 281 278 273 267 259 251 252 253 253 253 243 241 257 268 274 279 276 272 273 275 272 265 259 256 251 245 247 264 285
8 75 56 12 3 86 93 53 15 350 331 332 327 321 317 310 318 334 231 242 283 307 284 239 219 233 262 286 299 290 289 286 271 266 267 271 278 283 289 287 278 277 277 252 192 166 210 261 241 226 248 255 255 261 269 272 267 269 273 274 275 274 271 262 256 256 252 250 256 253 241 238 255 270 272 268 271 274 277 281 281 277 275 267 239 229 258 282
45 75 52 14 353 341 345 347 344 333 310 307 292 257 280 295 313 342 107 277 297 254 208 243 262 273 276 281 288 290 291 293 283 279 288 301 300 300 303 294 291 309 331 287 213 177 178 255 255 241 261 267 259 260 266 268 269 268 264 264 267 268 266 261 256 254 250 249 256 259 254 246 243 252 257 260 264 269 274 279 281 282 283 277 250 243 262 276
46 30 12 356 304 281 284 263 267 293 286 274 252 242 256 280 318 350 355 296 298 266 227 254 286 312 309 296 286 267 269 282 284 284 297 308 305 302 297 276 285 3 25 345 307 176 187 263 284 256 277 277 266 261 260 257 258 264 269 268 264 263 265 263 259 254 251 251 249 250 254 254 246 248 255 257 258 261 265 268 270 273 276 272 260 255 259 266
64 31 351 338 307 282 259 239 245 270 279 244 232 278 299 311 337 345 326 296 284 277 301 310 309 316 309 296 288 278 287 298 294 293 295 290 284 286 283 274 286 307 294 267 285 170 192 268 291 249 279 279 274 271 267 268 272 273 273 268 260 257 258 257 253 244 240 243 243 242 248 251 248 248 254 258 258 259 261 262 261 261 261 260 259 256 254 257
80 83 58 348 310 283 274 269 260 256 288 356 355 344 341 331 332 332 319 306 309 323 336 325 309 307 305 297 298 310 319 312 299 294 291 282 277 276 273 271 271 269 262 263 253 205 190 238 271 244 258 274 278 286 294 300 304 276 263 260 256 252 249 250 252 245 236 234 236 237 234 237 244 250 256 261 261 255 252 255 256 255 254 254 256 258 253 249